KA8OAD-1 Weather Reports


Display with metric or nautical units.
time (UTC)temp
F
wind
direction
speed
MPH
gust
MPH
rain 1hr
in
rain 24hr
in
rain mn
in
humidity
%
barometer
mb
20260902044005 76 0 0.0 0.0 0.00 0.00 0.00 87 1015.1
20260902043503 76 0 0.0 0.0 0.00 0.00 0.00 87 1015.2
20260902043005 76 0 0.0 0.0 0.00 0.00 0.00 87 1015.2
20260902042503 76 0 0.0 0.0 0.00 0.00 0.00 86 1015.2
20260902042004 76 0 0.0 0.0 0.00 0.00 0.00 86 1015.2
20260902041504 76 0 0.0 0.0 0.00 0.00 0.00 86 1015.2
20260902041004 76 0 0.0 0.0 0.00 0.00 0.00 86 1015.2
20260902040504 76 0 0.0 0.0 0.00 0.00 0.00 86 1015.2
20260902040008 76 0 0.0 0.0 0.00 0.00 0.00 85 1015.2
20260902035005 76 0 0.0 0.0 0.00 0.00 0.00 85 1015.3
20260902034504 76 0 0.0 0.0 0.00 0.00 0.00 85 1015.2
20260902034005 76 0 0.0 0.0 0.00 0.00 0.00 84 1015.1
20260902033504 76 0 0.0 0.0 0.00 0.00 0.00 84 1015.2
20260902033004 76 0 0.0 0.0 0.00 0.00 0.00 84 1015.2
20260902032504 76 0 0.0 0.0 0.00 0.00 0.00 84 1015.2
20260902032004 77 0 0.0 0.0 0.00 0.00 0.00 84 1015.2
20260902031005 77 0 0.0 0.0 0.00 0.00 0.00 84 1015.2
20260902030503 77 0 0.0 0.0 0.00 0.00 0.00 84 1015.2
20260902030005 77 0 0.0 0.0 0.00 0.00 0.00 84 1015.2
20260902025503 77 0 0.0 0.0 0.00 0.00 0.00 84 1015.2
20260902025005 77 0 0.0 0.0 0.00 0.00 0.00 83 1015.2
20260902024504 77 0 0.0 0.0 0.00 0.00 0.00 83 1015.2
20260902024004 78 0 0.0 0.0 0.00 0.00 0.00 83 1015.1
20260902023504 78 0 0.0 0.0 0.00 0.00 0.00 82 1015.0
20260902023004 78 0 0.0 0.0 0.00 0.00 0.00 82 1015.0
20260902022504 78 0 0.0 0.0 0.00 0.00 0.00 82 1014.8
20260902022005 78 0 0.0 0.0 0.00 0.00 0.00 81 1014.8
20260902021503 78 0 0.0 0.0 0.00 0.00 0.00 81 1014.9
20260902021005 78 0 0.0 0.0 0.00 0.00 0.00 80 1014.9
20260902015504 79 0 0.0 0.0 0.00 0.00 0.00 79 1014.8
20260902015004 79 0 0.0 0.0 0.00 0.00 0.00 78 1014.8
20260902014504 80 0 0.0 0.0 0.00 0.00 0.00 77 1014.8
20260902014005 80 0 0.0 0.0 0.00 0.00 0.00 77 1014.7
20260902012004 80 0 0.0 0.0 0.00 0.00 0.00 75 1014.6
20260902011005 81 0 0.0 0.0 0.00 0.00 0.00 73 1014.5
20260902010503 81 0 0.0 0.0 0.00 0.00 0.00 73 1014.4
20260902005503 82 0 0.0 0.0 0.00 0.00 0.00 71 1014.4
20260902005004 82 0 0.0 0.0 0.00 0.00 0.00 71 1014.4
20260902004504 82 0 0.0 0.0 0.00 0.00 0.00 71 1014.3
20260902004004 82 0 0.0 0.0 0.00 0.00 0.00 70 1014.3
20260902003503 82 0 0.0 0.0 0.00 0.00 0.00 70 1014.2
20260902003005 82 0 0.0 0.0 0.00 0.00 0.00 70 1014.1
20260902002504 83 0 0.0 0.0 0.00 0.00 0.00 69 1014.1
20260902002005 83 0 0.0 0.0 0.00 0.00 0.00 69 1014.0
20260902001503 83 0 0.0 0.0 0.00 0.00 0.00 69 1014.0
20260902001005 83 0 0.0 0.0 0.00 0.00 0.00 69 1014.0
20260902000503 83 241 0.0 1.0 0.00 0.00 0.00 69 1014.3
20260902000005 83 243 1.0 3.0 0.00 0.00 0.00 69 1014.4
20260901235005 84 252 0.0 3.0 0.00 0.00 0.00 69 1014.5
20260901234504 84 256 1.0 3.0 0.00 0.00 0.00 68 1014.3
20260901234004 84 257 2.0 4.0 0.00 0.00 0.00 68 1014.4
20260901233504 84 251 2.0 5.0 0.00 0.00 0.00 68 1014.4
20260901233005 84 256 2.0 5.0 0.00 0.00 0.00 68 1014.6
20260901232504 84 271 1.0 3.0 0.00 0.00 0.00 67 1014.7
20260901232005 85 200 1.0 3.0 0.00 0.00 0.00 67 1014.6
20260901231504 85 195 1.0 3.0 0.00 0.00 0.00 67 1014.8
20260901230504 85 277 1.0 4.0 0.00 0.00 0.00 66 1014.9
20260901230005 85 253 2.0 4.0 0.00 0.00 0.00 65 1014.9
20260901225504 85 235 2.0 7.0 0.00 0.00 0.00 65 1014.9
20260901225005 85 237 1.0 7.0 0.00 0.00 0.00 64 1014.8
20260901224005 85 243 2.0 5.0 0.00 0.00 0.00 64 1015.0
20260901223504 85 259 3.0 8.0 0.00 0.00 0.00 64 1015.0
20260901223005 86 266 3.0 8.0 0.00 0.00 0.00 63 1015.1
20260901222504 86 242 3.0 8.0 0.00 0.00 0.00 63 1015.1
20260901222005 86 236 4.0 8.0 0.00 0.00 0.00 63 1015.1
20260901221504 86 236 3.0 8.0 0.00 0.00 0.00 64 1015.0
20260901220503 86 239 3.0 8.0 0.00 0.00 0.00 65 1015.0
20260901220005 86 242 3.0 7.0 0.00 0.00 0.00 66 1015.0
20260901215504 86 239 2.0 7.0 0.00 0.00 0.00 66 1015.0
20260901215005 86 247 2.0 8.0 0.00 0.00 0.00 67 1014.9
20260901214503 86 243 2.0 8.0 0.00 0.00 0.00 67 1014.9
20260901214006 86 224 3.0 7.0 0.00 0.00 0.00 67 1014.9
20260901213505 86 231 3.0 11.0 0.00 0.00 0.00 67 1014.9
20260901213100 86 241 3.0 11.0 0.00 0.00 0.00 67 1014.9
20260901212004 86 241 5.0 10.0 0.00 0.00 0.00 67 1014.9
20260901211504 86 238 4.0 11.0 0.00 0.00 0.00 67 1015.0
20260901211005 87 228 2.0 11.0 0.00 0.00 0.00 68 1014.9
20260901210504 87 261 2.0 9.0 0.00 0.00 0.00 67 1015.0
20260901210005 87 251 3.0 9.0 0.00 0.00 0.00 68 1015.0
20260901205504 87 230 3.0 8.0 0.00 0.00 0.00 67 1015.0
20260901204504 87 238 3.0 12.0 0.00 0.00 0.00 67 1015.0
20260901204005 87 244 2.0 7.0 0.00 0.00 0.00 68 1014.9
20260901203005 87 232 2.0 7.0 0.00 0.00 0.00 68 1015.1
20260901202504 87 245 3.0 10.0 0.00 0.00 0.00 68 1015.2
20260901202004 87 253 3.0 10.0 0.00 0.00 0.00 67 1015.2
20260901201504 87 243 2.0 7.0 0.00 0.00 0.00 67 1015.2
20260901201005 87 249 3.0 9.0 0.00 0.00 0.00 67 1015.1
20260901200504 87 234 3.0 9.0 0.00 0.00 0.00 66 1015.1
20260901200005 88 223 3.0 9.0 0.00 0.00 0.00 65 1015.1
20260901195503 88 226 4.0 9.0 0.00 0.00 0.00 64 1015.0
20260901195004 88 221 4.0 9.0 0.00 0.00 0.00 64 1015.1
20260901194504 89 221 3.0 9.0 0.00 0.00 0.00 63 1014.9
20260901194005 89 226 3.0 7.0 0.00 0.00 0.00 63 1014.9
20260901193504 89 235 3.0 9.0 0.00 0.00 0.00 61 1014.9
20260901193005 90 248 3.0 9.0 0.00 0.00 0.00 60 1014.8
20260901192504 90 247 4.0 10.0 0.00 0.00 0.00 60 1014.8
20260901192005 90 233 3.0 10.0 0.00 0.00 0.00 60 1014.8
20260901191504 90 212 3.0 9.0 0.00 0.00 0.00 59 1014.7
20260901191004 91 213 2.0 7.0 0.00 0.00 0.00 58 1014.7
20260901190503 91 232 2.0 9.0 0.00 0.00 0.00 57 1014.7
20260901185504 92 227 3.0 8.0 0.00 0.00 0.00 57 1014.6
20260901185005 92 224 3.0 8.0 0.00 0.00 0.00 56 1014.7
20260901184504 92 220 3.0 6.0 0.00 0.00 0.00 57 1014.7
20260901184005 92 241 3.0 7.0 0.00 0.00 0.00 57 1014.8
20260901183504 92 248 4.0 10.0 0.00 0.00 0.00 57 1014.9
20260901183004 91 239 3.0 10.0 0.00 0.00 0.00 57 1014.9
20260901182504 91 226 3.0 8.0 0.00 0.00 0.00 61 1014.9
20260901182005 91 235 3.0 8.0 0.00 0.00 0.00 58 1014.9
20260901181504 90 246 3.0 7.0 0.00 0.00 0.00 60 1015.0
20260901181004 90 249 3.0 10.0 0.00 0.00 0.00 61 1015.0
20260901180504 90 252 4.0 10.0 0.00 0.00 0.00 60 1015.1
20260901180005 90 230 3.0 9.0 0.00 0.00 0.00 59 1015.2
20260901175504 91 229 3.0 6.0 0.00 0.00 0.00 59 1015.2
20260901175005 91 225 2.0 6.0 0.00 0.00 0.00 59 1015.1
20260901174504 91 213 2.0 9.0 0.00 0.00 0.00 59 1015.1
20260901174007 92 237 3.0 12.0 0.00 0.00 0.00 57 1015.2
20260901173504 92 245 3.0 12.0 0.00 0.00 0.00 57 1015.3
20260901173004 93 256 2.0 9.0 0.00 0.00 0.00 56 1015.4
20260901172504 93 250 3.0 9.0 0.00 0.00 0.00 57 1015.4
20260901172004 93 231 4.0 9.0 0.00 0.00 0.00 55 1015.4
20260901171504 93 238 4.0 9.0 0.00 0.00 0.00 54 1015.4
20260901171004 94 248 4.0 10.0 0.00 0.00 0.00 54 1015.5
20260901170505 94 236 4.0 11.0 0.00 0.00 0.00 54 1015.6
20260901170004 94 250 3.0 11.0 0.00 0.00 0.00 55 1015.5
20260901165503 94 292 3.0 15.0 0.00 0.00 0.00 55 1015.6
20260901164503 94 248 4.0 12.0 0.00 0.00 0.00 56 1015.6
20260901164004 94 240 3.0 12.0 0.00 0.00 0.00 53 1015.7
20260901163504 93 276 3.0 8.0 0.00 0.00 0.00 54 1015.7
20260901163005 93 283 3.0 8.0 0.00 0.00 0.00 55 1015.6
20260901162504 92 260 2.0 8.0 0.00 0.00 0.00 57 1015.6
20260901162004 92 260 3.0 8.0 0.00 0.00 0.00 57 1015.6
20260901161504 91 272 3.0 9.0 0.00 0.00 0.00 58 1015.6
20260901161004 90 276 3.0 9.0 0.00 0.00 0.00 59 1015.6
20260901155504 88 288 3.0 11.0 0.00 0.01 0.00 63 1015.4
20260901154504 88 315 4.0 10.0 0.00 0.01 0.00 62 1015.4
20260901154004 87 285 2.0 9.0 0.00 0.01 0.00 64 1015.6
20260901153504 87 262 2.0 7.0 0.00 0.01 0.00 65 1015.5
20260901153004 86 272 2.0 6.0 0.00 0.01 0.00 65 1015.5
20260901152504 86 265 2.0 6.0 0.00 0.01 0.00 66 1015.6
20260901152004 86 298 3.0 8.0 0.00 0.01 0.00 66 1015.6
20260901151504 85 318 3.0 11.0 0.00 0.01 0.00 66 1015.7
20260901150005 84 263 2.0 8.0 0.00 0.01 0.00 69 1015.4
20260901145503 84 271 3.0 10.0 0.00 0.01 0.00 69 1015.3
20260901145005 84 304 3.0 15.0 0.00 0.01 0.00 69 1015.3
20260901144503 83 278 3.0 15.0 0.00 0.01 0.00 70 1015.5
20260901144005 83 233 2.0 8.0 0.00 0.01 0.00 72 1015.5
20260901143504 82 253 2.0 8.0 0.00 0.01 0.00 74 1015.4
20260901143004 82 317 2.0 8.0 0.00 0.01 0.00 75 1015.4
20260901142504 81 303 3.0 8.0 0.00 0.01 0.00 75 1015.4
20260901142005 81 237 3.0 7.0 0.00 0.01 0.00 76 1015.5
20260901141504 80 244 2.0 7.0 0.00 0.01 0.00 77 1015.5
20260901141004 80 250 1.0 5.0 0.00 0.01 0.00 78 1015.5
20260901140504 80 251 1.0 5.0 0.00 0.01 0.00 79 1015.4
20260901140004 79 277 1.0 4.0 0.00 0.01 0.00 79 1015.2
20260901135505 79 251 1.0 3.0 0.00 0.01 0.00 80 1015.2
20260901134504 78 213 1.0 7.0 0.00 0.01 0.00 81 1015.1
20260901134005 78 221 1.0 7.0 0.00 0.01 0.00 82 1015.1
20260901133504 78 239 1.0 4.0 0.00 0.01 0.00 82 1015.2
20260901132504 77 240 1.0 6.0 0.00 0.01 0.00 82 1015.4
20260901132004 77 248 1.0 5.0 0.00 0.01 0.00 83 1015.4
20260901131504 77 249 1.0 4.0 0.00 0.01 0.00 83 1015.3
20260901131005 77 245 1.0 4.0 0.00 0.01 0.00 84 1015.5
20260901130005 76 244 0.0 3.0 0.00 0.01 0.00 84 1015.5
20260901125504 76 0 0.0 0.0 0.00 0.01 0.00 84 1015.5
20260901125004 76 0 0.0 0.0 0.00 0.01 0.00 84 1015.5
20260901124504 76 0 0.0 0.0 0.00 0.01 0.00 85 1015.6
20260901123004 76 0 0.0 0.0 0.00 0.01 0.00 85 1015.7
20260901122503 76 0 0.0 0.0 0.00 0.01 0.00 85 1015.7
20260901121504 75 0 0.0 0.0 0.00 0.01 0.00 85 1015.6
20260901121004 75 0 0.0 0.0 0.00 0.01 0.00 85 1015.5
20260901120503 75 0 0.0 0.0 0.00 0.01 0.00 85 1015.5
20260901120005 75 0 0.0 0.0 0.00 0.01 0.00 85 1015.6
20260901115004 75 0 0.0 0.0 0.00 0.01 0.00 85 1015.5
20260901114004 75 0 0.0 0.0 0.00 0.01 0.00 85 1015.5
20260901113503 75 0 0.0 0.0 0.00 0.01 0.00 85 1015.3
20260901113004 75 0 0.0 0.0 0.00 0.01 0.00 85 1015.4
20260901112504 75 0 0.0 0.0 0.00 0.01 0.00 85 1015.3
20260901112004 75 0 0.0 0.0 0.00 0.01 0.00 85 1015.2
20260901111504 75 0 0.0 0.0 0.00 0.01 0.00 85 1015.2
20260901111004 75 0 0.0 0.0 0.00 0.02 0.00 85 1015.1
20260901110004 75 0 0.0 0.0 0.00 0.02 0.00 85 1015.1
20260901105504 75 0 0.0 0.0 0.00 0.02 0.00 85 1015.1
20260901104504 75 0 0.0 0.0 0.00 0.02 0.00 85 1015.0
20260901104005 75 0 0.0 0.0 0.00 0.02 0.00 85 1015.0
20260901103503 75 0 0.0 0.0 0.00 0.02 0.00 85 1015.0
20260901103005 75 0 0.0 0.0 0.00 0.02 0.00 85 1015.0
20260901102504 75 0 0.0 0.0 0.00 0.02 0.00 85 1015.0
20260901102004 75 0 0.0 0.0 0.00 0.02 0.00 85 1015.0
20260901101504 75 0 0.0 0.0 0.00 0.02 0.00 85 1015.0
20260901101005 75 0 0.0 0.0 0.00 0.02 0.00 85 1015.0
20260901100503 75 0 0.0 0.0 0.00 0.02 0.00 85 1015.0
20260901095504 75 0 0.0 0.0 0.00 0.02 0.00 85 1015.0
20260901095004 75 0 0.0 0.0 0.00 0.02 0.00 85 1015.0
20260901094005 75 0 0.0 0.0 0.00 0.02 0.00 85 1014.9
20260901093503 75 0 0.0 0.0 0.00 0.02 0.00 85 1014.9
20260901092504 75 0 0.0 0.0 0.00 0.02 0.00 85 1015.0
20260901092004 75 0 0.0 0.0 0.00 0.02 0.00 85 1015.0
20260901091504 75 0 0.0 0.0 0.00 0.02 0.00 85 1015.0
20260901091004 75 0 0.0 0.0 0.00 0.02 0.00 85 1014.9
20260901090503 75 0 0.0 0.0 0.00 0.02 0.00 85 1015.0
20260901090005 75 0 0.0 0.0 0.00 0.02 0.00 85 1015.0
20260901085504 75 0 0.0 0.0 0.00 0.02 0.00 85 1014.9
20260901085004 75 0 0.0 0.0 0.00 0.02 0.00 85 1014.9
20260901084004 75 0 0.0 0.0 0.00 0.02 0.00 85 1015.0
20260901083504 74 0 0.0 0.0 0.00 0.02 0.00 85 1015.0
20260901083004 74 0 0.0 0.0 0.00 0.02 0.00 85 1014.9
20260901082504 74 0 0.0 0.0 0.00 0.02 0.00 85 1014.9
20260901082004 74 0 0.0 0.0 0.00 0.02 0.00 85 1015.0
20260901081504 74 0 0.0 0.0 0.00 0.02 0.00 85 1015.0
20260901081005 74 0 0.0 0.0 0.00 0.02 0.00 85 1015.1
20260901080504 74 0 0.0 0.0 0.00 0.02 0.00 85 1015.1
20260901080004 74 0 0.0 0.0 0.00 0.02 0.00 85 1015.1
20260901075504 74 0 0.0 0.0 0.00 0.02 0.00 85 1015.1
20260901075004 74 0 0.0 0.0 0.00 0.02 0.00 85 1015.1
20260901074504 74 0 0.0 0.0 0.00 0.02 0.00 85 1015.1
20260901074004 74 0 0.0 0.0 0.00 0.02 0.00 85 1015.1
20260901073503 74 0 0.0 0.0 0.00 0.02 0.00 85 1015.1
20260901073004 74 0 0.0 0.0 0.00 0.02 0.00 85 1015.1
20260901072504 74 0 0.0 0.0 0.00 0.02 0.00 85 1015.1
20260901072005 74 0 0.0 0.0 0.00 0.02 0.00 86 1015.1
20260901071503 74 0 0.0 0.0 0.00 0.02 0.00 86 1015.0
20260901070505 74 0 0.0 0.0 0.00 0.02 0.00 86 1015.0
20260901070004 74 0 0.0 0.0 0.00 0.02 0.00 86 1015.0
20260901065504 74 0 0.0 0.0 0.00 0.02 0.00 86 1015.1
20260901065004 74 0 0.0 0.0 0.00 0.02 0.00 86 1015.1
20260901064503 74 0 0.0 0.0 0.00 0.02 0.00 86 1015.1
20260901064004 74 0 0.0 0.0 0.00 0.02 0.00 86 1015.2
20260901063504 74 0 0.0 0.0 0.00 0.02 0.00 86 1015.2
20260901063004 74 0 0.0 0.0 0.00 0.02 0.00 87 1015.2
20260901062504 74 0 0.0 0.0 0.00 0.02 0.00 87 1015.2
20260901062004 74 0 0.0 0.0 0.00 0.02 0.00 87 1015.2
20260901061504 74 0 0.0 0.0 0.00 0.02 0.00 87 1015.2
20260901061004 74 0 0.0 0.0 0.00 0.02 0.00 87 1015.2
20260901060004 74 0 0.0 0.0 0.00 0.02 0.00 87 1015.3
20260901055504 74 0 0.0 0.0 0.00 0.02 0.00 87 1015.4
20260901055004 74 233 0.0 1.0 0.00 0.02 0.00 87 1015.5
20260901054503 74 233 0.0 1.0 0.00 0.02 0.00 87 1015.6
20260901053005 74 0 0.0 0.0 0.00 0.02 0.00 87 1015.6
20260901052503 74 0 0.0 0.0 0.00 0.02 0.00 87 1015.6
20260901051004 74 0 0.0 0.0 0.00 0.02 0.00 87 1015.7
20260901050004 74 0 0.0 0.0 0.00 0.02 0.00 87 1015.7
20260901045503 74 0 0.0 0.0 0.00 0.02 0.00 87 1015.8
20260901044506 74 0 0.0 0.0 0.00 0.02 0.00 87 1015.7